EW1970 Weather Reports


Display with metric or nautical units.
time (UTC)temp
F
wind
direction
speed
MPH
gust
MPH
rain 1hr
in
rain 24hr
in
rain mn
in
humidity
%
barometer
mb
20260902101506 78 252 0.0 2.0 0.00 0.00 0.00 77 1015.5
20260902100014 78 252 0.0 2.0 0.00 0.00 0.00 78 1015.6
20260902094517 78 252 0.0 1.0 0.00 0.00 0.00 80 1015.6
20260902093023 78 235 0.0 2.0 0.00 0.00 0.00 80 1015.6
20260902091556 78 237 0.0 2.0 0.00 0.00 0.00 80 1015.6
20260902090010 77 25 0.0 0.0 0.00 0.00 0.00 80 1015.7
20260902084516 77 25 0.0 0.0 0.00 0.00 0.00 78 1015.6
20260902083021 78 25 0.0 0.0 0.00 0.00 0.00 78 1015.6
20260902081533 78 25 0.0 0.0 0.00 0.00 0.00 78 1015.9
20260902080037 78 25 0.0 0.0 0.00 0.00 0.00 77 1015.8
20260902074516 78 52 0.0 0.0 0.00 0.00 0.00 77 1015.9
20260902073022 79 52 0.0 0.0 0.00 0.00 0.00 76 1015.9
20260902071549 79 52 0.0 0.0 0.00 0.00 0.00 75 1015.9
20260902070031 80 52 0.0 0.0 0.00 0.00 0.00 74 1016.0
20260902064531 80 52 0.0 1.0 0.00 0.00 0.00 74 1016.1
20260902063025 81 77 0.0 0.0 0.00 0.00 0.00 73 1016.1
20260902061539 81 77 0.0 2.0 0.00 0.00 0.00 72 1016.0
20260902060032 82 132 0.0 1.0 0.00 0.00 0.00 71 1016.0
20260902054541 82 110 0.0 2.0 0.00 0.00 0.00 69 1015.9
20260902053033 83 136 0.0 2.0 0.00 0.00 0.00 68 1015.7
20260902051526 83 141 0.0 2.0 0.00 0.00 0.00 67 1015.8
20260902050040 84 98 0.0 2.0 0.00 0.00 0.00 66 1015.8
20260902044532 85 148 0.0 5.0 0.00 0.00 0.00 65 1015.8
20260902043033 85 167 0.0 4.0 0.00 0.00 0.00 64 1015.8
20260902041505 85 108 0.0 3.0 0.00 0.00 0.00 63 1015.7
20260902040004 86 114 0.0 2.0 0.00 0.00 0.00 62 1015.7
20260902034507 86 126 0.0 2.0 0.00 0.00 0.00 61 1015.5
20260902033011 86 142 0.0 3.0 0.00 0.00 0.00 61 1015.3
20260902031517 86 146 0.0 2.0 0.00 0.00 0.00 60 1015.2
20260902030004 87 157 0.0 5.0 0.00 0.00 0.00 59 1014.9
20260902024504 87 258 0.0 3.0 0.00 0.00 0.00 58 1014.5
20260902023015 88 78 0.0 2.0 0.00 0.00 0.00 57 1014.3
20260902021513 87 64 0.0 4.0 0.00 0.00 0.00 57 1014.0
20260902020023 87 129 0.0 3.0 0.00 0.00 0.00 56 1013.9
20260902014504 88 95 0.0 4.0 0.00 0.00 0.00 54 1013.8
20260902013005 88 126 0.0 2.0 0.00 0.00 0.00 53 1013.6
20260902011521 89 159 0.0 4.0 0.00 0.00 0.00 51 1013.5
20260902010036 90 49 0.0 3.0 0.00 0.00 0.00 50 1013.4
20260902004527 91 182 0.0 6.0 0.00 0.00 0.00 50 1013.5
20260902003004 92 157 0.0 7.0 0.00 0.00 0.00 47 1013.6
20260902001512 93 74 0.0 6.0 0.00 0.00 0.00 46 1013.6
20260902000024 94 65 0.0 4.0 0.00 0.00 0.00 42 1013.5
20260901234526 95 142 0.0 3.0 0.00 0.00 0.00 42 1013.5
20260901233027 96 143 0.0 4.0 0.00 0.00 0.00 42 1013.5
20260901231508 96 156 0.0 8.0 0.00 0.00 0.00 42 1013.5
20260901230026 97 63 0.0 5.0 0.00 0.00 0.00 41 1013.6
20260901224527 97 349 0.0 3.0 0.00 0.00 0.00 41 1013.5
20260901223042 97 182 0.0 3.0 0.00 0.00 0.00 43 1013.6
20260901221530 99 219 1.0 8.0 0.00 0.00 0.00 41 1013.6
20260901220014 98 169 1.0 4.0 0.00 0.00 0.00 40 1013.7
20260901214516 97 70 0.0 4.0 0.00 0.00 0.00 41 1013.7
20260901213033 100 115 0.0 4.0 0.00 0.00 0.00 40 1013.8
20260901211530 98 123 1.0 5.0 0.00 0.00 0.00 41 1013.9
20260901210038 94 53 0.0 4.0 0.00 0.00 0.00 46 1014.1
20260901204520 100 49 1.0 4.0 0.00 0.00 0.00 41 1014.3
20260901203035 100 34 1.0 5.0 0.00 0.00 0.00 38 1014.5
20260901201531 99 248 1.0 3.0 0.00 0.00 0.00 41 1014.7
20260901200043 98 114 1.0 4.0 0.00 0.00 0.00 41 1015.0
20260901194547 98 255 0.0 4.0 0.00 0.00 0.00 43 1015.2
20260901193018 99 336 0.0 3.0 0.00 0.00 0.00 41 1015.4
20260901191530 98 223 1.0 3.0 0.00 0.00 0.00 41 1015.7
20260901190032 97 351 1.0 2.0 0.00 0.00 0.00 44 1015.8
20260901184530 96 5 0.0 3.0 0.00 0.00 0.00 47 1016.1
20260901183038 97 352 1.0 4.0 0.00 0.00 0.00 46 1016.3
20260901181522 92 352 0.0 3.0 0.00 0.00 0.00 52 1016.7
20260901180032 95 315 0.0 7.0 0.00 0.00 0.00 49 1016.9
20260901174505 96 279 0.0 3.0 0.00 0.00 0.00 48 1017.1
20260901173011 94 62 2.0 5.0 0.00 0.00 0.00 49 1017.3
20260901171517 94 154 0.0 3.0 0.00 0.00 0.00 50 1017.5
20260901170101 94 165 0.0 2.0 0.00 0.00 0.00 51 1017.7
20260901164512 93 352 1.0 3.0 0.00 0.00 0.00 51 1017.6
20260901163016 92 18 0.0 4.0 0.00 0.00 0.00 56 1017.7
20260901161515 91 73 0.0 3.0 0.00 0.00 0.00 58 1017.9
20260901160032 89 247 0.0 2.0 0.00 0.00 0.00 63 1017.8
20260901154527 87 43 0.0 2.0 0.00 0.00 0.00 65 1017.8
20260901153010 85 249 0.0 2.0 0.00 0.00 0.00 68 1017.7
20260901151514 84 219 0.0 4.0 0.00 0.00 0.00 69 1017.6
20260901150021 83 307 0.0 2.0 0.00 0.00 0.00 73 1017.8
20260901144527 82 187 0.0 3.0 0.00 0.00 0.00 77 1017.8
20260901143030 81 252 1.0 2.0 0.00 0.00 0.00 80 1018.1
20260901141510 80 176 0.0 2.0 0.00 0.00 0.00 82 1018.2
20260901140021 80 334 0.0 5.0 0.00 0.00 0.00 83 1018.3
20260901134524 78 269 0.0 1.0 0.00 0.00 0.00 1018.1
20260901133026 77 325 0.0 1.0 0.00 0.00 0.00 89 1017.9
20260901131537 76 273 0.0 0.0 0.00 0.00 0.00 90 1017.9
20260901130019 75 273 0.0 0.0 0.00 0.00 0.00 90 1017.6
20260901124522 75 273 0.0 0.0 0.00 0.00 0.00 90 1017.4
20260901123037 75 273 0.0 0.0 0.00 0.00 0.00 90 1017.4
20260901121536 75 273 0.0 0.0 0.00 0.00 0.00 89 1017.1
20260901120031 75 273 0.0 0.0 0.00 0.00 0.00 89 1017.0
20260901114520 76 273 0.0 0.0 0.00 0.00 0.00 88 1017.0
20260901113027 76 273 0.0 2.0 0.00 0.00 0.00 87 1017.0
20260901111530 77 252 0.0 1.0 0.00 0.00 0.00 87 1016.9
20260901110031 77 238 1.0 2.0 0.00 0.00 0.00 87 1017.0
20260901104535 77 235 0.0 2.0 0.00 0.00 0.00 85 1016.8
20260901103025 78 281 0.0 2.0 0.00 0.00 0.00 85 1016.9